{"data":{"norad_id":61578,"intl_designator":"2024-187E","name":"STARLINK-11285 [DTC]","alt_names":[],"object_type":"PAYLOAD","status":"ACTIVE","operator":null,"country":"US","launch_date":"2024-10-18","launch_site_code":"AFETR","launch_vehicle":null,"mission":null,"orbit_class":"UNKNOWN","rcs_meters":null,"size_class":null,"mass_kg":null,"dimensions":null,"purposes":["comms"],"wikipedia_slug":null,"has_3d_model":false,"image_url":null,"decayed_at":null,"tle_current":{"epoch":"2026-05-25T04:00:03.998880Z","epoch_age_seconds":60986,"freshness":"FRESH","line1":"1 61578U 24187E   26145.16671295 -.00149218  00000+0 -12455-2 0  9999","line2":"2 61578  53.1568 279.0444 0001030  92.0551 305.1994 15.69777769  6026","mean_motion":15.69777769,"eccentricity":0.000103,"inclination_deg":53.1568,"raan_deg":279.0444,"arg_perigee_deg":92.0551,"mean_anomaly_deg":305.1994,"bstar":-0.0012455,"rev_number":602,"period_min":91.732729844768,"perigee_km":358.83884846684,"apogee_km":360.22680845151,"semimajor_km":6737.6698284592,"source":"CELESTRAK","updated_at":"2026-05-25T13:38:19.402538Z"}}}